VR2R-13 Weather Reports


Display with metric or nautical units.
time (UTC)temp
F
wind
direction
speed
MPH
gust
MPH
rain 1hr
in
rain 24hr
in
rain mn
in
humidity
%
barometer
mb
20260506093752 66 170 5.0 7.0 0.00 0.00 0.00 98 913.1
20260506093553 65 148 3.0 7.0 0.00 0.00 0.00 98 913.1
20260506093252 65 146 0.0 7.0 0.00 0.00 0.00 98 913.0
20260506092953 65 142 5.0 8.0 0.00 0.00 0.00 98 913.0
20260506092752 65 151 5.0 8.0 0.00 0.00 0.00 98 913.0
20260506092356 65 169 5.0 9.0 0.00 0.00 0.00 98 913.0
20260506092252 65 179 4.0 9.0 0.00 0.00 0.00 98 913.1
20260506091753 65 130 5.0 8.0 0.00 0.00 0.00 98 913.1
20260506091252 65 159 5.0 8.0 0.00 0.00 0.00 98 913.1
20260506091153 65 153 5.0 8.0 0.00 0.00 0.00 98 913.1
20260506090553 65 68 5.0 8.0 0.00 0.00 0.00 98 913.0
20260506090252 65 189 4.0 7.0 0.00 0.00 0.00 98 913.0
20260506085953 65 102 5.0 7.0 0.00 0.00 0.00 98 913.1
20260506085754 65 82 2.0 8.0 0.00 0.00 0.00 98 913.1
20260506085251 64 79 4.0 8.0 0.00 0.00 0.00 98 913.1
20260506084754 65 143 5.0 7.0 0.00 0.00 0.00 98 913.1
20260506084752 65 146 5.0 7.0 0.00 0.00 0.00 98 913.1
20260506084253 64 114 3.0 9.0 0.00 0.00 0.00 98 913.0
20260506084153 64 124 1.0 9.0 0.00 0.00 0.00 98 913.0
20260506083751 64 112 5.0 7.0 0.00 0.00 0.00 98 913.1
20260506083553 64 69 0.0 7.0 0.00 0.00 0.00 98 913.1
20260506083251 64 115 7.0 10.0 0.00 0.00 0.00 98 913.0
20260506082953 65 74 5.0 8.0 0.00 0.00 0.00 98 913.0
20260506082751 65 109 6.0 8.0 0.00 0.00 0.00 98 913.0
20260506082353 64 93 5.0 9.0 0.00 0.00 0.00 98 913.0
20260506082251 64 114 1.0 6.0 0.00 0.00 0.00 98 913.1
20260506081753 65 119 7.0 10.0 0.00 0.00 0.00 98 913.1
20260506081751 65 116 7.0 10.0 0.00 0.00 0.00 98 913.1
20260506081251 65 109 7.0 10.0 0.00 0.00 0.00 98 913.1
20260506081153 65 85 6.0 10.0 0.00 0.00 0.00 98 913.1
20260506080751 65 86 6.0 10.0 0.00 0.00 0.00 98 913.1
20260506080553 64 98 0.0 0.0 0.00 0.00 0.00 98 913.1
20260506080251 64 106 5.0 10.0 0.00 0.00 0.00 98 913.1
20260506073251 64 92 0.0 2.0 0.00 0.00 0.00 98 913.4
20260506072751 64 90 4.0 7.0 0.00 0.00 0.00 98 913.5
20260506072352 64 91 5.0 8.0 0.00 0.00 0.00 98 913.5
20260506072251 64 87 3.0 8.0 0.00 0.00 0.00 98 913.5
20260506071753 64 99 4.0 8.0 0.00 0.00 0.00 98 913.6
20260506071751 64 89 4.0 8.0 0.00 0.00 0.00 98 913.6
20260506070251 64 107 1.0 6.0 0.00 0.00 0.00 98 913.6
20260506062352 64 76 0.0 1.0 0.00 0.00 0.00 98 913.9
20260506062250 64 56 1.0 7.0 0.00 0.00 0.00 98 913.9
20260506061752 64 83 2.0 5.0 0.00 0.00 0.00 98 914.0
20260506061750 64 94 2.0 5.0 0.00 0.00 0.00 98 914.0
20260506061250 64 112 1.0 5.0 0.00 0.00 0.00 98 914.0
20260506061152 64 111 3.0 5.0 0.00 0.00 0.00 98 914.1
20260506060750 64 62 2.0 5.0 0.00 0.00 0.00 98 914.1
20260506060551 64 98 1.0 4.0 0.00 0.00 0.00 98 914.0
20260506060250 64 94 3.0 5.0 0.00 0.00 0.00 98 914.1
20260506051250 65 141 3.0 5.0 0.00 0.00 0.00 98 914.6
20260506051153 65 123 2.0 5.0 0.00 0.00 0.00 98 914.5
20260506050750 64 139 1.0 3.0 0.00 0.00 0.00 98 914.6
20260506050551 65 96 1.0 3.0 0.00 0.00 0.00 98 914.6
20260506050250 65 99 1.0 3.0 0.00 0.00 0.00 98 914.6
20260506044751 64 145 2.0 6.0 0.00 0.00 0.00 98 914.8
20260506044151 64 68 4.0 7.0 0.00 0.00 0.00 98 914.7
20260506043749 64 70 4.0 7.0 0.00 0.00 0.00 98 914.8
20260506043551 64 68 5.0 7.0 0.00 0.00 0.00 98 914.8
20260506043249 63 90 5.0 7.0 0.00 0.00 0.00 98 914.8
20260506042951 63 82 6.0 7.0 0.00 0.00 0.00 98 914.8
20260506042750 63 68 6.0 7.0 0.00 0.00 0.00 98 914.8
20260506042351 64 88 2.0 7.0 0.00 0.00 0.00 98 914.8
20260506042249 64 79 5.0 7.0 0.00 0.00 0.00 98 914.8
20260506041752 64 59 6.0 8.0 0.00 0.00 0.00 98 914.8
20260506041249 64 101 5.0 6.0 0.00 0.00 0.00 98 914.8
20260506041151 64 97 3.0 6.0 0.00 0.00 0.00 98 914.8
20260506040749 64 87 2.0 5.0 0.00 0.00 0.00 98 914.9
20260506040551 64 101 3.0 5.0 0.00 0.00 0.00 98 914.9
20260506040249 64 71 2.0 5.0 0.00 0.00 0.00 98 914.9
20260506035350 64 109 1.0 4.0 0.00 0.00 0.00 98 915.0
20260506035249 64 114 0.0 3.0 0.00 0.00 0.00 98 915.0
20260506034751 64 98 0.0 1.0 0.00 0.00 0.00 98 914.9
20260506034749 64 104 0.0 1.0 0.00 0.00 0.00 98 914.9
20260506034249 64 104 0.0 0.0 0.00 0.00 0.00 98 915.0
20260506033750 64 103 2.0 4.0 0.00 0.00 0.00 98 914.9
20260506033249 64 103 4.0 6.0 0.00 0.00 0.00 98 915.0
20260506032952 63 57 0.0 0.0 0.00 0.00 0.00 98 915.0
20260506032749 63 76 0.0 4.0 0.00 0.00 0.00 98 915.0
20260506032350 64 85 4.0 6.0 0.00 0.00 0.00 98 914.9
20260506032249 64 95 4.0 6.0 0.00 0.00 0.00 98 914.9
20260506031751 64 111 2.0 6.0 0.00 0.00 0.00 98 914.9
20260506031749 64 113 2.0 6.0 0.00 0.00 0.00 98 914.9
20260506030550 63 86 0.0 3.0 0.00 0.00 0.00 98 914.9
20260506030249 64 82 3.0 5.0 0.00 0.00 0.00 98 914.9
20260506025950 63 66 0.0 3.0 0.00 0.00 0.00 98 914.9
20260506025749 64 87 4.0 8.0 0.00 0.00 0.00 98 914.9
20260506025351 64 71 4.0 8.0 0.00 0.00 0.00 98 914.9
20260506025249 64 81 5.0 8.0 0.00 0.00 0.00 98 914.9
20260506024750 64 71 3.0 8.0 0.00 0.00 0.00 98 914.9
20260506024249 63 87 7.0 10.0 0.00 0.00 0.00 98 914.9
20260506024150 63 90 3.0 10.0 0.00 0.00 0.00 98 914.9
20260506023749 64 95 1.0 6.0 0.00 0.00 0.00 98 914.9
20260506023550 63 84 0.0 7.0 0.00 0.00 0.00 98 914.9
20260506023249 64 62 6.0 10.0 0.00 0.00 0.00 98 914.8
20260506022950 64 86 6.0 8.0 0.00 0.00 0.00 98 914.8
20260506022749 63 77 0.0 7.0 0.00 0.00 0.00 98 914.8
20260506022350 63 88 5.0 9.0 0.00 0.00 0.00 98 914.8
20260506022248 63 75 1.0 8.0 0.00 0.00 0.00 98 914.8
20260506021750 63 82 6.0 8.0 0.00 0.00 0.00 98 914.9
20260506021748 63 78 6.0 8.0 0.00 0.00 0.00 98 914.9
20260506021248 63 75 2.0 8.0 0.00 0.00 0.00 98 914.8
20260506021151 63 76 6.0 8.0 0.00 0.00 0.00 98 914.8
20260506020249 62 86 0.0 0.0 0.00 0.00 0.00 98 914.8
20260506015350 63 77 6.0 8.0 0.00 0.00 0.00 98 914.9
20260506015248 63 60 5.0 8.0 0.00 0.00 0.00 98 914.9
20260506014750 63 60 6.0 8.0 0.00 0.00 0.00 98 914.9
20260506014748 63 65 6.0 8.0 0.00 0.00 0.00 98 914.8
20260506014248 63 80 7.0 9.0 0.00 0.00 0.00 98 914.9
20260506014150 63 72 4.0 8.0 0.00 0.00 0.00 98 914.8
20260506013748 63 78 8.0 9.0 0.00 0.00 0.00 98 914.8
20260506013550 63 90 6.0 9.0 0.00 0.00 0.00 98 914.8
20260506013248 63 48 4.0 8.0 0.00 0.00 0.00 97 914.9
20260506012748 63 53 2.0 9.0 0.00 0.00 0.00 98 914.9
20260506012349 63 81 1.0 7.0 0.00 0.00 0.00 98 914.9
20260506012250 63 72 6.0 8.0 0.00 0.00 0.00 98 914.9
20260506011750 63 82 1.0 7.0 0.00 0.00 0.00 98 915.0
20260506011748 63 78 1.0 7.0 0.00 0.00 0.00 98 915.0
20260506011249 62 79 0.0 0.0 0.00 0.00 0.00 98 915.0
20260506011149 63 94 2.0 6.0 0.00 0.00 0.00 98 915.0
20260506010748 63 67 4.0 5.0 0.00 0.00 0.00 98 915.0
20260506010549 63 83 1.0 5.0 0.00 0.00 0.00 98 915.0
20260506010248 62 72 3.0 6.0 0.00 0.00 0.00 98 915.0
20260506005949 62 38 3.0 6.0 0.00 0.00 0.00 98 915.0
20260506005748 62 78 2.0 6.0 0.00 0.00 0.00 98 915.0
20260506005349 62 52 5.0 9.0 0.00 0.00 0.00 98 915.0
20260506005248 62 51 5.0 9.0 0.00 0.00 0.00 98 915.0
20260506004750 62 70 7.0 9.0 0.00 0.00 0.00 97 914.9
20260506004748 62 52 7.0 9.0 0.00 0.00 0.00 97 914.9
20260506004248 62 85 0.0 7.0 0.00 0.00 0.00 98 914.9
20260506004149 62 83 5.0 6.0 0.00 0.00 0.00 98 915.0
20260506003748 62 84 2.0 5.0 0.00 0.00 0.00 98 914.9
20260506003248 62 76 5.0 7.0 0.00 0.00 0.00 97 914.9
20260506002949 62 78 2.0 6.0 0.00 0.00 0.00 98 914.9
20260506002748 62 77 5.0 8.0 0.00 0.00 0.00 98 914.8
20260506002349 62 55 6.0 8.0 0.00 0.00 0.00 97 914.8
20260506002248 62 57 4.0 8.0 0.00 0.00 0.00 97 914.8
20260506001747 62 78 4.0 8.0 0.00 0.00 0.00 98 914.6
20260506001248 62 66 3.0 8.0 0.00 0.00 0.00 98 914.7
20260506001149 61 66 0.0 5.0 0.00 0.00 0.00 98 914.7
20260506000747 61 51 0.0 5.0 0.00 0.00 0.00 98 914.6
20260506000549 62 54 2.0 6.0 0.00 0.00 0.00 98 914.6
20260506000247 62 20 4.0 7.0 0.00 0.00 0.00 98 914.6
20260505235949 62 61 5.0 6.0 0.00 0.00 0.00 98 914.5
20260505235747 62 54 2.0 6.0 0.00 0.00 0.00 98 914.6
20260505235349 61 51 0.0 6.0 0.00 0.00 0.00 98 914.6
20260505234749 61 68 3.0 9.0 0.00 0.00 0.00 98 914.6
20260505234747 61 73 3.0 9.0 0.00 0.00 0.00 98 914.5
20260505234148 61 83 8.0 10.0 0.00 0.00 0.00 97 914.6
20260505233549 61 63 5.0 9.0 0.00 0.00 0.00 97 914.4
20260505232949 61 64 1.0 9.0 0.00 0.00 0.00 98 914.4
20260505232747 61 78 8.0 11.0 0.00 0.00 0.00 97 914.4
20260505232348 61 72 8.0 10.0 0.00 0.00 0.00 97 914.4
20260505232247 61 75 8.0 10.0 0.00 0.00 0.00 97 914.4
20260505231749 61 71 8.0 11.0 0.00 0.00 0.00 97 914.3
20260505231747 61 70 8.0 11.0 0.00 0.00 0.00 97 914.4
20260505231449 61 76 7.0 11.0 0.00 0.00 0.00 97 914.3
20260505231247 61 82 7.0 11.0 0.00 0.00 0.00 97 914.4
20260505231148 61 76 7.0 11.0 0.00 0.00 0.00 97 914.3
20260505230747 61 57 7.0 10.0 0.00 0.00 0.00 97 914.3
20260505230548 61 54 6.0 9.0 0.00 0.00 0.00 97 914.3
20260505230247 61 73 5.0 9.0 0.00 0.00 0.00 97 914.3
20260505225948 61 94 7.0 8.0 0.00 0.00 0.00 97 914.2
20260505225747 61 72 5.0 7.0 0.00 0.00 0.00 97 914.3
20260505225348 61 66 4.0 8.0 0.00 0.00 0.00 97 914.3
20260505225247 61 64 5.0 8.0 0.00 0.00 0.00 97 914.3
20260505224749 61 63 6.0 8.0 0.00 0.00 0.00 97 914.2
20260505224747 61 60 6.0 8.0 0.00 0.00 0.00 97 914.2
20260505224247 61 38 4.0 7.0 0.00 0.00 0.00 97 914.1
20260505224148 61 61 4.0 7.0 0.00 0.00 0.00 97 914.1
20260505223747 61 74 6.0 8.0 0.00 0.00 0.00 97 914.1
20260505223548 61 46 0.0 4.0 0.00 0.00 0.00 97 914.1
20260505223247 61 83 6.0 9.0 0.00 0.00 0.00 97 914.0
20260505222948 61 96 5.0 9.0 0.00 0.00 0.00 97 914.0
20260505222747 61 71 6.0 9.0 0.00 0.00 0.00 97 914.0
20260505222348 61 81 1.0 6.0 0.00 0.00 0.00 97 914.0
20260505222246 61 77 3.0 7.0 0.00 0.00 0.00 97 914.1
20260505221748 61 79 3.0 6.0 0.00 0.00 0.00 97 914.1
20260505221247 61 80 1.0 4.0 0.00 0.00 0.00 97 914.0
20260505221148 61 34 3.0 6.0 0.00 0.00 0.00 97 913.9
20260505220548 61 77 3.0 5.0 0.00 0.00 0.00 97 913.9
20260505220246 61 66 4.0 5.0 0.00 0.00 0.00 97 913.8
20260505215948 61 62 3.0 4.0 0.00 0.00 0.00 97 913.8
20260505215746 61 77 0.0 4.0 0.00 0.00 0.00 97 913.7
20260505215348 62 116 3.0 4.0 0.00 0.00 0.00 97 913.7
20260505215246 62 80 2.0 4.0 0.00 0.00 0.00 97 913.7
20260505214748 62 67 1.0 5.0 0.00 0.00 0.00 97 913.7
20260505214746 62 64 1.0 5.0 0.00 0.00 0.00 97 913.7
20260505214246 62 45 2.0 5.0 0.00 0.00 0.00 97 913.7
20260505213746 62 142 1.0 3.0 0.00 0.00 0.00 98 913.7
20260505213548 62 90 1.0 4.0 0.00 0.00 0.00 98 913.7
20260505213246 62 59 1.0 4.0 0.00 0.00 0.00 98 913.7
20260505212948 62 77 1.0 4.0 0.00 0.00 0.00 97 913.7
20260505212746 62 75 2.0 4.0 0.00 0.00 0.00 97 913.7
20260505212347 62 81 2.0 4.0 0.00 0.00 0.00 97 913.7
20260505211748 62 77 1.0 3.0 0.00 0.00 0.00 97 913.7
20260505211246 62 95 0.0 5.0 0.00 0.00 0.00 97 913.6
20260505211147 63 49 1.0 5.0 0.00 0.00 0.00 97 913.6
20260505210746 63 145 1.0 5.0 0.00 0.00 0.00 98 913.6
20260505210547 63 120 2.0 5.0 0.00 0.00 0.00 98 913.6
20260505210246 63 166 2.0 3.0 0.00 0.00 0.00 98 913.6
20260505205947 63 151 0.0 3.0 0.00 0.00 0.00 98 913.5
20260505205746 63 123 0.0 3.0 0.00 0.00 0.00 98 913.5
20260505205347 63 154 1.0 2.0 0.00 0.00 0.00 98 913.5
20260505205248 63 177 0.0 2.0 0.00 0.00 0.00 98 913.5
20260505204748 63 92 1.0 3.0 0.00 0.00 0.00 98 913.4
20260505204746 63 97 1.0 3.0 0.00 0.00 0.00 98 913.4
20260505204246 62 21 1.0 4.0 0.00 0.00 0.00 97 913.4
20260505204147 62 71 1.0 4.0 0.00 0.00 0.00 97 913.4
20260505203746 62 48 2.0 6.0 0.00 0.00 0.00 97 913.4
20260505203547 62 84 2.0 6.0 0.00 0.00 0.00 97 913.3
20260505203246 63 80 4.0 6.0 0.00 0.00 0.00 98 913.4
20260505202947 62 126 1.0 5.0 0.00 0.00 0.00 98 913.4
20260505202746 62 87 1.0 6.0 0.00 0.00 0.00 97 913.4
20260505202347 62 64 1.0 6.0 0.00 0.00 0.00 97 913.3
20260505202246 62 63 2.0 6.0 0.00 0.00 0.00 97 913.4
20260505201748 62 120 1.0 3.0 0.00 0.00 0.00 98 913.4
20260505201746 62 118 1.0 3.0 0.00 0.00 0.00 98 913.4
20260505201246 62 51 0.0 5.0 0.00 0.00 0.00 97 913.4
20260505201147 62 52 1.0 6.0 0.00 0.00 0.00 98 913.4
20260505200746 62 78 2.0 6.0 0.00 0.00 0.00 97 913.4
20260505200547 62 105 3.0 6.0 0.00 0.00 0.00 97 913.4
20260505200246 62 125 3.0 6.0 0.00 0.00 0.00 98 913.4
20260505195947 62 75 3.0 5.0 0.00 0.00 0.00 98 913.3
20260505195747 62 64 1.0 5.0 0.00 0.00 0.00 98 913.3
20260505195347 62 85 3.0 6.0 0.00 0.00 0.00 97 913.3
20260505195246 62 82 3.0 6.0 0.00 0.00 0.00 98 913.3
20260505194745 62 96 1.0 6.0 0.00 0.00 0.00 98 913.3
20260505194245 62 84 4.0 7.0 0.00 0.00 0.00 97 913.3
20260505194147 62 90 4.0 7.0 0.00 0.00 0.00 97 913.3
20260505193745 62 83 5.0 7.0 0.00 0.00 0.00 97 913.3
20260505193547 62 82 3.0 7.0 0.00 0.00 0.00 97 913.3
20260505193245 62 100 5.0 7.0 0.00 0.00 0.00 97 913.3
20260505192947 62 95 5.0 7.0 0.00 0.00 0.00 98 913.3
20260505192746 62 77 4.0 6.0 0.00 0.00 0.00 97 913.2
20260505192347 62 74 5.0 6.0 0.00 0.00 0.00 97 913.2
20260505192245 62 80 5.0 6.0 0.00 0.00 0.00 97 913.2
20260505191747 62 61 4.0 6.0 0.00 0.00 0.00 98 913.2
20260505191745 62 70 4.0 6.0 0.00 0.00 0.00 98 913.2
20260505191245 62 81 4.0 6.0 0.00 0.00 0.00 98 913.2
20260505191147 62 67 4.0 6.0 0.00 0.00 0.00 98 913.3
20260505190747 61 73 4.0 7.0 0.00 0.00 0.00 97 913.2
20260505190246 61 32 4.0 7.0 0.00 0.00 0.00 97 913.2
20260505185947 61 77 6.0 7.0 0.00 0.00 0.00 98 913.2
20260505185745 61 71 3.0 7.0 0.00 0.00 0.00 97 913.2
20260505185346 61 73 4.0 8.0 0.00 0.00 0.00 97 913.1
20260505185245 61 50 4.0 8.0 0.00 0.00 0.00 97 913.1
20260505184747 61 75 6.0 10.0 0.00 0.00 0.00 97 913.1
20260505184745 61 77 6.0 10.0 0.00 0.00 0.00 97 913.1
20260505184245 61 70 6.0 10.0 0.00 0.00 0.00 97 913.2
20260505184146 61 86 7.0 10.0 0.00 0.00 0.00 97 913.2
20260505183745 61 92 6.0 8.0 0.00 0.00 0.00 97 913.2
20260505183546 61 88 6.0 8.0 0.00 0.00 0.00 97 913.2
20260505183245 61 70 6.0 8.0 0.00 0.00 0.00 97 913.3
20260505182946 61 68 5.0 8.0 0.00 0.00 0.00 97 913.3
20260505182745 61 72 4.0 8.0 0.00 0.00 0.00 97 913.3
20260505182346 61 69 5.0 8.0 0.00 0.00 0.00 97 913.3
20260505181747 62 74 3.0 8.0 0.00 0.00 0.00 97 913.3
20260505181745 62 79 3.0 8.0 0.00 0.00 0.00 97 913.3
20260505181245 61 70 4.0 6.0 0.00 0.00 0.00 98 913.3
20260505181146 61 68 4.0 7.0 0.00 0.00 0.00 98 913.4
20260505180745 61 83 4.0 8.0 0.00 0.00 0.00 97 913.4
20260505180546 61 73 4.0 8.0 0.00 0.00 0.00 97 913.4
20260505180244 61 63 5.0 8.0 0.00 0.00 0.00 97 913.4
20260505175946 61 61 4.0 8.0 0.00 0.00 0.00 97 913.3
20260505175744 61 70 3.0 8.0 0.00 0.00 0.00 97 913.4
20260505175244 62 87 6.0 8.0 0.00 0.00 0.00 97 913.3
20260505174244 61 51 4.0 8.0 0.00 0.00 0.00 97 913.4
20260505174146 61 51 5.0 8.0 0.00 0.00 0.00 97 913.4
20260505173744 61 78 5.0 8.0 0.00 0.00 0.00 98 913.5
20260505173244 61 91 7.0 9.0 0.00 0.00 0.00 97 913.4
20260505172946 61 56 7.0 9.0 0.00 0.00 0.00 97 913.5
20260505172744 61 58 6.0 9.0 0.00 0.00 0.00 97 913.5
20260505172346 61 78 7.0 11.0 0.00 0.00 0.00 97 913.5
20260505172244 61 48 8.0 11.0 0.00 0.00 0.00 97 913.5
20260505171746 61 71 8.0 11.0 0.00 0.00 0.00 97 913.5
20260505171744 61 70 8.0 11.0 0.00 0.00 0.00 97 913.5
20260505171244 61 74 3.0 12.0 0.00 0.00 0.00 97 913.5
20260505170244 61 83 9.0 14.0 0.00 0.00 0.00 97 913.5
20260505165946 61 52 8.0 10.0 0.00 0.00 0.00 97 913.6
20260505165744 61 74 1.0 10.0 0.00 0.00 0.00 97 913.7
20260505165345 61 50 8.0 12.0 0.00 0.00 0.00 97 913.6
20260505165244 61 61 9.0 13.0 0.00 0.00 0.00 97 913.6
20260505164746 61 62 10.0 13.0 0.00 0.00 0.00 97 913.6
20260505164244 61 67 9.0 13.0 0.00 0.00 0.00 97 913.7
20260505164145 61 78 9.0 13.0 0.00 0.00 0.00 97 913.7
20260505163744 61 75 10.0 13.0 0.00 0.00 0.00 97 913.7
20260505163244 61 76 11.0 14.0 0.00 0.00 0.00 97 913.7
20260505162945 61 64 10.0 13.0 0.00 0.00 0.00 97 913.7
20260505162744 61 75 10.0 13.0 0.00 0.00 0.00 97 913.7
20260505162345 61 94 5.0 12.0 0.00 0.00 0.00 97 913.8
20260505162245 61 89 0.0 11.0 0.00 0.00 0.00 97 913.7
20260505161744 61 79 9.0 10.0 0.00 0.00 0.00 97 913.9
20260505161145 61 48 8.0 15.0 0.00 0.00 0.00 97 913.9
20260505160744 61 84 10.0 15.0 0.00 0.00 0.00 97 914.0
20260505160545 61 81 6.0 9.0 0.00 0.00 0.00 97 914.0
20260505160244 61 69 7.0 9.0 0.00 0.00 0.00 98 914.0
20260505153243 61 71 6.0 8.0 0.00 0.00 0.00 97 914.3
20260505152945 61 80 7.0 9.0 0.00 0.00 0.00 97 914.2
20260505152744 61 84 8.0 9.0 0.00 0.00 0.00 97 914.3
20260505152345 61 79 7.0 9.0 0.00 0.00 0.00 97 914.3
20260505152243 61 73 7.0 9.0 0.00 0.00 0.00 97 914.4
20260505151745 61 60 0.0 7.0 0.00 0.00 0.00 97 914.5
20260505151743 61 56 0.0 7.0 0.00 0.00 0.00 97 914.5
20260505151244 60 60 1.0 7.0 0.00 0.00 0.00 97 914.5
20260505151145 61 57 6.0 8.0 0.00 0.00 0.00 97 914.5
20260505150743 61 63 6.0 8.0 0.00 0.00 0.00 97 914.5
20260505150545 60 67 0.0 7.0 0.00 0.00 0.00 97 914.5
20260505150244 60 67 2.0 9.0 0.00 0.00 0.00 97 914.5
20260505140544 61 59 3.0 8.0 0.00 0.00 0.00 97 914.6
20260505130242 61 48 4.0 6.0 0.00 0.00 0.00 97 914.4
20260505124744 61 35 0.0 4.0 0.00 0.00 0.00 98 914.4
20260505124144 61 18 4.0 6.0 0.00 0.00 0.00 97 914.3
20260505123742 61 35 5.0 6.0 0.00 0.00 0.00 97 914.2
20260505123543 61 22 0.0 5.0 0.00 0.00 0.00 97 914.2
20260505123242 61 43 5.0 8.0 0.00 0.00 0.00 97 914.2
20260505122943 61 41 3.0 7.0 0.00 0.00 0.00 97 914.2
20260505122743 61 46 5.0 7.0 0.00 0.00 0.00 97 914.1
20260505122343 61 55 5.0 6.0 0.00 0.00 0.00 97 914.1
20260505122242 61 40 5.0 6.0 0.00 0.00 0.00 97 914.1
20260505121744 61 51 2.0 5.0 0.00 0.00 0.00 97 914.1
20260505121742 61 53 2.0 5.0 0.00 0.00 0.00 97 914.1
20260505121242 61 43 5.0 7.0 0.00 0.00 0.00 97 914.1
20260505121143 61 34 5.0 7.0 0.00 0.00 0.00 97 914.0
20260505120742 61 61 5.0 5.0 0.00 0.00 0.00 97 914.1
20260505120543 61 62 4.0 5.0 0.00 0.00 0.00 97 914.1
20260505115742 62 31 0.0 1.0 0.00 0.00 0.00 97 914.1
20260505115343 63 59 3.0 3.0 0.01 0.01 0.00 97 914.0
20260505115242 63 49 3.0 3.0 0.01 0.01 0.00 97 914.0
20260505114742 62 28 0.0 1.0 0.00 0.00 0.00 98 914.0
20260505114242 62 2 0.0 0.0 0.00 0.00 0.00 98 914.0
20260505114145 62 10 0.0 0.0 0.00 0.00 0.00 97 914.0
20260505113742 63 19 2.0 3.0 0.00 0.00 0.00 97 914.0
20260505113543 62 49 0.0 2.0 0.00 0.00 0.00 98 913.9
20260505113242 63 56 0.0 3.0 0.00 0.00 0.00 98 913.9
20260505112943 63 48 1.0 2.0 0.00 0.00 0.00 97 913.9
20260505112741 62 3 1.0 2.0 0.00 0.00 0.00 97 913.9
20260505112242 62 41 3.0 4.0 0.00 0.00 0.00 97 913.8
20260505111743 62 41 1.0 4.0 0.00 0.00 0.00 98 913.7
20260505111741 62 37 1.0 4.0 0.00 0.00 0.00 98 913.8
20260505111242 62 35 3.0 3.0 0.00 0.00 0.00 98 913.7
20260505111143 62 38 3.0 3.0 0.00 0.00 0.00 98 913.7
20260505110741 62 46 1.0 4.0 0.00 0.00 0.00 98 913.7
20260505110543 62 63 0.0 4.0 0.00 0.00 0.00 98 913.7
20260505110241 62 61 4.0 5.0 0.00 0.00 0.00 97 913.7
20260505101743 62 60 4.0 5.0 0.01 0.01 0.00 97 913.5
20260505101741 62 57 4.0 5.0 0.01 0.01 0.00 97 913.5
20260505101241 62 58 1.0 4.0 0.00 0.00 0.00 97 913.5
20260505101142 62 66 0.0 3.0 0.00 0.00 0.00 98 913.5
20260505100741 62 91 1.0 3.0 0.00 0.00 0.00 97 913.5
20260505100542 62 60 2.0 3.0 0.00 0.00 0.00 97 913.5
20260505100241 62 48 0.0 3.0 0.00 0.00 0.00 97 913.4
20260505095942 62 63 3.0 4.0 0.00 0.00 0.00 97 913.4
20260505095741 62 66 3.0 4.0 0.00 0.00 0.00 97 913.4
20260505095342 62 69 1.0 5.0 0.00 0.00 0.00 97 913.4
20260505094743 62 56 5.0 6.0 0.00 0.00 0.00 97 913.3
20260505094741 62 54 5.0 6.0 0.00 0.00 0.00 97 913.3
20260505094142 62 43 4.0 5.0 0.00 0.00 0.00 97 913.3